"SCET";"TARGET";"ELECTRON_DENSITY";"ERROR_FLAG";"ELECTRON_DENSITY_ERROR";"FREQ_FCE";"MEASURED_VALUE";"MEASURED_ITEM";"FREQ_PLASMA";"FREQ_UPPER_HYBRID";"FREQ_R_EQUALS_ZERO";"FREQ_L_EQUALS_ZERO";"ORBIT_NUMBER";"SATURN_RADIUS";"SATURN_IAU_LONGITUDE";"SATURN_SLS4_S_LONGITUDE";"SATURN_SLS4_N_LONGITUDE";"SATURN_SLS5_S_LONGITUDE";"SATURN_SLS5_N_LONGITUDE";"SATURN_LOCAL_TIME";"SATURN_KRONOGRAPHIC_LATITUDE";"SATURN_MAGNETIC_LATITUDE";"SATURN_L";"SATURN_L_OFFSET";"SATURN_SOLAR_EQUATORIAL_X";"SATURN_SOLAR_EQUATORIAL_Y";"SATURN_SOLAR_EQUATORIAL_Z";"SATURN_ALTITUDE";"ENCELADUS_ENCOUNTER_NUMBER";"ENCELADUS_RADIUS";"ENCELADUS_COROTATIONAL_X";"ENCELADUS_COROTATIONAL_Y";"ENCELADUS_COROTATIONAL_Z";"ENCELADUS_TRUE_ANOMALY";"ENCELADUS_PERIAPSIS_TIME";"JUPITER_RADIUS";"JUPITER_SYSTEMIII_LONGITUDE";"JUPITER_MAGNETIC_LATITUDE";"JUPITER_MAGNETIC_LOCAL_TIME";"JUPITER_L";"IO_PHASE";"EARTH_RADIUS";"EARTH_MAGNETIC_LATITUDE";"EARTH_LOCAL_TIME";"EARTH_L"
"[UTC]";"[0=Saturn, 1=Enceladus, 2=Jupiter, 3=Earth]";"[cm-3]";"[0=automated, 1=manual]";"[normalized density error]";"[Hz]";"[Hz]";"[0=upper hybrid frequency, 1=plasma frequency cutoff]";"[Hz]";"[Hz]";"[Hz]";"[Hz}";"[0, A, B, C, 3, 4, ... , 292, 293]";"[Rs where 1Rs=60268km]";"[degrees]";"[degrees]";"[degrees]";"[degrees]";"[degrees]";"[hours]";"[degrees]";"[degrees where offset=2293km north]";"[Rs where 1Rs=60268km]";"[Rs where 1Rs=60268km and offset=2293km north]";"[Rs where 1Rs=60268km]";"[Rs where 1Rs=60268km]";"[Rs where 1Rs=60268km]";"[km where ellipsoid a,b=60268km and c=54364km]";"[E0, E1, E2, ... , E21, E22]";"[Renc where 1Renc=252.1km]";"[Renc where 1Renc=252.1km]";"[Renc where 1Renc=252.1km]";"[Renc where 1Renc=252.1km]";"[degrees]";"[UTC]";"[Rj where 1Rj=71492km]";"[degrees]";"[degrees using JRM09 model]";"[hours using JRM09 model]";"[Rj where 1Rj=71492km]";"[degrees]";"[Re where 1Re=6378.1366km]";"[degrees]";"[hours]";"[Re where 1Re=6378.1366km]"
2015-11-24T00:00:04.305Z;0;5.8080e+01;0;     0.100; 11148.956;  69339.992; 0;  68437.820;  69339.992;  74238.953;  63089.996;226;   3.695; 175.497;;; 261.863; 274.463;  11.463;   1.267;   0.677;   3.697;   3.691;   3.658;  -0.517;   0.082;;;;;;;;;;;;;;;;;;
2015-11-24T00:00:20.304Z;0;5.9410e+01;0;     0.100; 11148.956;  70106.945; 0;  69214.773;  70106.945;  75013.367;  63864.410;226;   3.692; 175.586;;; 261.952; 274.550;  11.467;   1.266;   0.676;   3.694;   3.688;   3.656;  -0.513;   0.082;;;;;;;;;;;;;;;;;;
2015-11-24T00:00:36.304Z;0;5.8510e+01;0;     0.107; 11148.956;  69588.172; 0;  68689.258;  69588.172;  74489.562;  63340.609;226;   3.690; 175.676;;; 262.040; 274.637;  11.471;   1.266;   0.675;   3.692;   3.686;   3.654;  -0.509;   0.082;;;;;;;;;;;;;;;;;;
2015-11-24T00:00:52.304Z;0;5.9700e+01;0;     0.103; 11148.956;  70276.672; 0;  69386.680;  70276.672;  75184.727;  64035.766;226;   3.688; 175.765;;; 262.129; 274.725;  11.475;   1.265;   0.674;   3.689;   3.683;   3.652;  -0.505;   0.081;;;;;;;;;;;;;;;;;;
2015-11-24T00:01:08.304Z;0;5.9590e+01;0;     0.098; 11227.524;  70226.125; 0;  69322.805;  70226.125;  75163.500;  63935.973;226;   3.685; 175.854;;; 262.217; 274.812;  11.479;   1.265;   0.673;   3.687;   3.681;   3.650;  -0.500;   0.081;;;;;;;;;;;;;;;;;;
2015-11-24T00:01:24.304Z;0;6.0150e+01;0;     0.107; 11227.524;  70546.578; 0;  69647.414;  70546.578;  75487.055;  64259.527;226;   3.683; 175.943;;; 262.306; 274.900;  11.483;   1.264;   0.672;   3.684;   3.678;   3.648;  -0.496;   0.081;;;;;;;;;;;;;;;;;;
2015-11-24T00:01:40.304Z;0;6.0120e+01;0;     0.100; 11227.524;  70530.469; 0;  69631.094;  70530.469;  75470.789;  64243.266;226;   3.680; 176.032;;; 262.394; 274.987;  11.488;   1.264;   0.671;   3.682;   3.676;   3.646;  -0.492;   0.081;;;;;;;;;;;;;;;;;;
2015-11-24T00:01:56.304Z;0;5.9890e+01;0;     0.105; 11227.524;  70395.367; 0;  69494.250;  70395.367;  75334.383;  64106.855;226;   3.678; 176.121;;; 262.482; 275.074;  11.492;   1.263;   0.671;   3.679;   3.673;   3.644;  -0.488;   0.081;;;;;;;;;;;;;;;;;;
2015-11-24T00:02:12.304Z;0;5.9410e+01;0;     0.101; 11316.116;  70133.977; 0;  69215.031;  70133.977;  75103.961;  63787.848;226;   3.675; 176.210;;; 262.570; 275.162;  11.496;   1.263;   0.670;   3.677;   3.671;   3.642;  -0.484;   0.081;;;;;;;;;;;;;;;;;;
2015-11-24T00:02:28.304Z;0;5.9550e+01;0;     0.097; 11316.116;  70216.977; 0;  69299.133;  70216.977;  75187.781;  63871.668;226;   3.673; 176.299;;; 262.658; 275.249;  11.500;   1.262;   0.669;   3.674;   3.668;   3.640;  -0.479;   0.081;;;;;;;;;;;;;;;;;;
2015-11-24T00:02:44.304Z;0;6.0150e+01;0;     0.098; 11316.116;  70559.781; 0;  69646.453;  70559.781;  75533.961;  64217.844;226;   3.670; 176.388;;; 262.746; 275.336;  11.504;   1.262;   0.668;   3.672;   3.666;   3.638;  -0.475;   0.081;;;;;;;;;;;;;;;;;;
2015-11-24T00:03:00.303Z;0;5.9930e+01;0;     0.097; 11405.548;  70448.266; 0;  69518.859;  70448.266;  75455.148;  64049.598;226;   3.668; 176.476;;; 262.834; 275.424;  11.508;   1.261;   0.667;   3.669;   3.663;   3.636;  -0.471;   0.081;;;;;;;;;;;;;;;;;;
2015-11-24T00:03:16.303Z;0;6.0320e+01;0;     0.103; 11405.548;  70671.773; 0;  69745.344;  70671.773;  75680.875;  64275.328;226;   3.665; 176.565;;; 262.922; 275.511;  11.512;   1.261;   0.666;   3.667;   3.661;   3.634;  -0.467;   0.081;;;;;;;;;;;;;;;;;;
2015-11-24T00:03:32.303Z;0;6.0470e+01;0;     0.101; 11405.548;  70756.133; 0;  69830.820;  70756.133;  75766.070;  64360.523;226;   3.663; 176.653;;; 263.010; 275.598;  11.516;   1.260;   0.665;   3.664;   3.658;   3.632;  -0.462;   0.081;;;;;;;;;;;;;;;;;;
2015-11-24T00:03:48.303Z;0;6.0420e+01;0;     0.103; 11405.548;  70729.000; 0;  69803.328;  70729.000;  75738.672;  64333.121;226;   3.660; 176.742;;; 263.097; 275.685;  11.520;   1.260;   0.664;   3.662;   3.656;   3.631;  -0.458;   0.080;;;;;;;;;;;;;;;;;;
2015-11-24T00:04:04.303Z;0;5.9950e+01;0;     0.104; 11496.353;  70475.062; 0;  69531.062;  70475.062;  75516.438;  64020.082;226;   3.658; 176.830;;; 263.185; 275.773;  11.524;   1.259;   0.663;   3.660;   3.653;   3.629;  -0.454;   0.080;;;;;;;;;;;;;;;;;;
2015-11-24T00:04:20.303Z;0;6.0250e+01;0;     0.107; 11496.353;  70645.961; 0;  69704.273;  70645.961;  75689.062;  64192.707;226;   3.655; 176.918;;; 263.272; 275.860;  11.529;   1.259;   0.662;   3.657;   3.651;   3.627;  -0.450;   0.080;;;;;;;;;;;;;;;;;;
2015-11-24T00:04:36.303Z;0;6.0280e+01;0;     0.105; 11496.353;  70662.180; 0;  69720.711;  70662.180;  75705.445;  64209.090;226;   3.653; 177.006;;; 263.360; 275.947;  11.533;   1.258;   0.661;   3.655;   3.648;   3.625;  -0.446;   0.080;;;;;;;;;;;;;;;;;;
2015-11-24T00:04:52.303Z;0;6.0110e+01;0;     0.104; 11496.353;  70563.711; 0;  69620.914;  70563.711;  75605.977;  64109.629;226;   3.650; 177.094;;; 263.447; 276.034;  11.537;   1.258;   0.661;   3.652;   3.646;   3.623;  -0.441;   0.080;;;;;;;;;;;;;;;;;;
2015-11-24T00:05:08.303Z;0;6.0380e+01;0;     0.107; 11588.080;  70736.133; 0;  69780.492;  70736.133;  75814.664;  64226.586;226;   3.648; 177.182;;; 263.534; 276.122;  11.541;   1.257;   0.660;   3.650;   3.643;   3.621;  -0.437;   0.080;;;;;;;;;;;;;;;;;;
2015-11-24T00:05:24.302Z;0;6.0160e+01;0;     0.110; 11588.080;  70607.961; 0;  69650.562;  70607.961;  75685.180;  64097.102;226;   3.645; 177.270;;; 263.621; 276.209;  11.545;   1.256;   0.659;   3.647;   3.641;   3.619;  -0.433;   0.080;;;;;;;;;;;;;;;;;;
2015-11-24T00:05:40.302Z;0;5.8110e+01;0;     0.100; 11588.080;  69426.258; 0;  68452.328;  69426.258;  74491.148;  62903.066;226;   3.643; 177.358;;; 263.708; 276.296;  11.549;   1.256;   0.658;   3.645;   3.639;   3.617;  -0.429;   0.080;;;;;;;;;;;;;;;;;;
2015-11-24T00:05:56.302Z;0;5.9410e+01;0;     0.110; 11588.080;  70182.008; 0;  69218.719;  70182.008;  75254.828;  63666.750;226;   3.640; 177.446;;; 263.795; 276.383;  11.553;   1.255;   0.657;   3.642;   3.636;   3.615;  -0.424;   0.080;;;;;;;;;;;;;;;;;;
2015-11-24T00:06:12.302Z;0;5.7720e+01;0;     0.099; 11680.647;  69214.875; 0;  68222.148;  69214.875;  74312.000;  62631.355;226;   3.638; 177.533;;; 263.882; 276.470;  11.558;   1.255;   0.656;   3.640;   3.634;   3.613;  -0.420;   0.080;;;;;;;;;;;;;;;;;;
2015-11-24T00:06:28.302Z;0;5.7430e+01;0;     0.092; 11680.647;  69046.773; 0;  68051.594;  69046.773;  74142.070;  62461.426;226;   3.636; 177.621;;; 263.969; 276.558;  11.562;   1.254;   0.655;   3.637;   3.631;   3.611;  -0.416;   0.080;;;;;;;;;;;;;;;;;;
2015-11-24T00:06:44.302Z;0;5.8200e+01;0;     0.106; 11680.647;  69493.320; 0;  68504.625;  69493.320;  74593.461;  62912.809;226;   3.633; 177.708;;; 264.056; 276.645;  11.566;   1.254;   0.654;   3.635;   3.629;   3.609;  -0.412;   0.079;;;;;;;;;;;;;;;;;;
2015-11-24T00:07:16.302Z;0;5.7360e+01;0;     0.100; 11774.141;  69024.000; 0;  68012.367;  69024.000;  74153.750;  62379.613;226;   3.628; 177.883;;; 264.229; 276.819;  11.574;   1.253;   0.652;   3.630;   3.624;   3.605;  -0.403;   0.079;;;;;;;;;;;;;;;;;;
2015-11-24T00:07:32.302Z;0;5.6970e+01;0;     0.094; 11774.141;  68796.617; 0;  67781.594;  68796.617;  73923.836;  62149.699;226;   3.626; 177.970;;; 264.315; 276.906;  11.579;   1.252;   0.651;   3.627;   3.621;   3.603;  -0.399;   0.079;;;;;;;;;;;;;;;;;;
2015-11-24T00:07:48.302Z;0;5.6680e+01;0;     0.088; 11774.141;  68624.555; 0;  67606.945;  68624.555;  73749.852;  61975.707;226;   3.623; 178.057;;; 264.402; 276.993;  11.583;   1.252;   0.650;   3.625;   3.619;   3.601;  -0.395;   0.079;;;;;;;;;;;;;;;;;;
2015-11-24T00:08:04.301Z;0;5.6520e+01;0;     0.099; 11868.416;  68545.000; 0;  67509.688;  68545.000;  73704.203;  61835.789;226;   3.621; 178.144;;; 264.488; 277.080;  11.587;   1.251;   0.649;   3.622;   3.616;   3.599;  -0.391;   0.079;;;;;;;;;;;;;;;;;;
2015-11-24T00:08:20.301Z;0;5.7180e+01;0;     0.103; 11868.416;  68935.266; 0;  67905.898;  68935.266;  74098.906;  62230.492;226;   3.618; 178.231;;; 264.574; 277.167;  11.591;   1.251;   0.648;   3.620;   3.614;   3.597;  -0.386;   0.079;;;;;;;;;;;;;;;;;;
2015-11-24T00:08:36.301Z;0;5.6800e+01;0;     0.091; 11868.416;  68709.594; 0;  67676.797;  68709.594;  73870.680;  62002.262;226;   3.616; 178.318;;; 264.661; 277.255;  11.595;   1.250;   0.647;   3.618;   3.611;   3.595;  -0.382;   0.079;;;;;;;;;;;;;;;;;;
2015-11-24T00:08:52.301Z;0;5.7380e+01;0;     0.102; 11868.416;  69049.859; 0;  68022.227;  69049.859;  74214.797;  62346.379;226;   3.613; 178.405;;; 264.747; 277.342;  11.600;   1.249;   0.646;   3.615;   3.609;   3.593;  -0.378;   0.079;;;;;;;;;;;;;;;;;;
2015-11-24T00:09:08.301Z;0;5.7470e+01;0;     0.096; 11962.776;  69117.391; 0;  68074.266;  69117.391;  74317.930;  62355.152;226;   3.611; 178.492;;; 264.833; 277.429;  11.604;   1.249;   0.645;   3.613;   3.607;   3.591;  -0.374;   0.079;;;;;;;;;;;;;;;;;;
2015-11-24T00:09:24.301Z;0;5.7130e+01;0;     0.092; 11962.776;  68923.719; 0;  67877.617;  68923.719;  74122.039;  62159.262;226;   3.608; 178.578;;; 264.919; 277.516;  11.608;   1.248;   0.644;   3.610;   3.604;   3.589;  -0.369;   0.079;;;;;;;;;;;;;;;;;;
2015-11-24T00:09:40.301Z;0;5.7700e+01;0;     0.101; 11962.776;  69254.812; 0;  68213.789;  69254.812;  74456.914;  62494.141;226;   3.606; 178.665;;; 265.004; 277.603;  11.612;   1.248;   0.643;   3.608;   3.602;   3.587;  -0.365;   0.079;;;;;;;;;;;;;;;;;;
2015-11-24T00:09:56.301Z;0;5.8150e+01;0;     0.102; 11962.776;  69513.984; 0;  68476.898;  69513.984;  74719.023;  62756.250;226;   3.604; 178.751;;; 265.090; 277.690;  11.617;   1.247;   0.642;   3.605;   3.599;   3.585;  -0.361;   0.078;;;;;;;;;;;;;;;;;;
2015-11-24T00:10:12.301Z;0;5.8130e+01;0;     0.097; 12058.004;  69517.359; 0;  68463.625;  69517.359;  74757.578;  62699.570;226;   3.601; 178.838;;; 265.176; 277.776;  11.621;   1.247;   0.641;   3.603;   3.597;   3.583;  -0.357;   0.078;;;;;;;;;;;;;;;;;;
2015-11-24T00:10:28.301Z;0;5.9390e+01;0;     0.100; 12058.004;  70247.570; 0;  69204.953;  70247.570;  75496.078;  63438.074;226;   3.599; 178.924;;; 265.261; 277.861;  11.625;   1.246;   0.640;   3.600;   3.594;   3.580;  -0.352;   0.078;;;;;;;;;;;;;;;;;;
2015-11-24T00:10:44.300Z;0;6.0260e+01;0;     0.102; 12058.004;  70741.711; 0;  69706.484;  70741.711;  75995.727;  63937.727;226;   3.596; 179.010;;; 265.347; 277.947;  11.629;   1.245;   0.639;   3.598;   3.592;   3.578;  -0.348;   0.078;;;;;;;;;;;;;;;;;;
2015-11-24T00:11:00.300Z;0;6.0040e+01;0;     0.097; 12154.128;  70635.883; 0;  69582.359;  70635.883;  75924.297;  63770.168;226;   3.594; 179.096;;; 265.432; 278.032;  11.634;   1.245;   0.638;   3.595;   3.589;   3.576;  -0.344;   0.078;;;;;;;;;;;;;;;;;;
2015-11-24T00:11:16.300Z;0;6.0710e+01;0;     0.098; 12154.128;  71014.820; 0;  69967.008;  71014.820;  76307.492;  64153.359;226;   3.591; 179.182;;; 265.517; 278.117;  11.638;   1.244;   0.637;   3.593;   3.587;   3.574;  -0.340;   0.078;;;;;;;;;;;;;;;;;;
2015-11-24T00:11:32.300Z;0;6.0590e+01;0;     0.103; 12154.128;  70948.070; 0;  69899.258;  70948.070;  76239.992;  64085.863;226;   3.589; 179.268;;; 265.602; 278.202;  11.642;   1.244;   0.636;   3.591;   3.585;   3.572;  -0.335;   0.078;;;;;;;;;;;;;;;;;;
2015-11-24T00:11:48.300Z;0;5.9820e+01;0;     0.098; 12154.128;  70512.648; 0;  69457.258;  70512.648;  75799.664;  63645.539;226;   3.586; 179.354;;; 265.687; 278.287;  11.646;   1.243;   0.635;   3.588;   3.582;   3.570;  -0.331;   0.078;;;;;;;;;;;;;;;;;;
2015-11-24T00:12:04.300Z;0;5.9740e+01;0;     0.091; 12251.204;  70482.156; 0;  69409.234;  70482.156;  75804.617;  63553.414;226;   3.584; 179.439;;; 265.772; 278.372;  11.651;   1.243;   0.634;   3.586;   3.580;   3.568;  -0.327;   0.078;;;;;;;;;;;;;;;;;;
2015-11-24T00:12:20.300Z;0;6.0350e+01;0;     0.102; 12251.204;  70830.297; 0;  69762.734;  70830.297;  76156.750;  63905.547;226;   3.582; 179.525;;; 265.857; 278.457;  11.655;   1.242;   0.633;   3.583;   3.577;   3.566;  -0.323;   0.078;;;;;;;;;;;;;;;;;;
2015-11-24T00:12:36.300Z;0;5.9430e+01;0;     0.109; 12251.204;  70302.781; 0;  69227.086;  70302.781;  75623.172;  63371.965;226;   3.579; 179.611;;; 265.942; 278.542;  11.659;   1.241;   0.632;   3.581;   3.575;   3.564;  -0.319;   0.078;;;;;;;;;;;;;;;;;;
2015-11-24T00:12:52.300Z;0;5.9610e+01;0;     0.094; 12251.204;  70407.875; 0;  69333.805;  70407.875;  75729.477;  63478.277;226;   3.577; 179.696;;; 266.027; 278.627;  11.664;   1.241;   0.631;   3.578;   3.572;   3.562;  -0.314;   0.077;;;;;;;;;;;;;;;;;;
2015-11-24T00:13:08.300Z;0;6.0500e+01;0;     0.103; 12348.896;  70931.367; 0;  69848.148;  70931.367;  76294.969;  63946.074;226;   3.574; 179.781;;; 266.111; 278.711;  11.668;   1.240;   0.630;   3.576;   3.570;   3.560;  -0.310;   0.077;;;;;;;;;;;;;;;;;;
2015-11-24T00:13:24.299Z;0;6.0250e+01;0;     0.092; 12348.896;  70791.055; 0;  69705.656;  70791.055;  76153.031;  63804.133;226;   3.572; 179.867;;; 266.196; 278.796;  11.672;   1.240;   0.629;   3.573;   3.567;   3.558;  -0.306;   0.077;;;;;;;;;;;;;;;;;;
2015-11-24T00:13:40.299Z;0;6.0410e+01;0;     0.093; 12348.896;  70881.391; 0;  69797.398;  70881.391;  76244.414;  63895.520;226;   3.569; 179.952;;; 266.280; 278.880;  11.677;   1.239;   0.628;   3.571;   3.565;   3.556;  -0.302;   0.077;;;;;;;;;;;;;;;;;;
2015-11-24T00:13:56.299Z;0;5.7720e+01;0;     0.092; 12348.896;  69333.719; 0;  68225.141;  69333.719;  74678.414;  62329.516;226;   3.567; 180.037;;; 266.365; 278.965;  11.681;   1.238;   0.627;   3.569;   3.563;   3.554;  -0.297;   0.077;;;;;;;;;;;;;;;;;;
2015-11-24T00:14:12.299Z;0;5.7000e+01;0;     0.086; 12447.904;  68932.820; 0;  67799.586;  68932.820;  74308.609;  61860.707;226;   3.564; 180.122;;; 266.449; 279.049;  11.685;   1.238;   0.626;   3.566;   3.560;   3.552;  -0.293;   0.077;;;;;;;;;;;;;;;;;;
2015-11-24T00:14:28.299Z;0;5.6760e+01;0;     0.083; 12447.904;  68792.844; 0;  67657.258;  68792.844;  74166.891;  61718.984;226;   3.562; 180.207;;; 266.533; 279.133;  11.690;   1.237;   0.625;   3.564;   3.558;   3.549;  -0.289;   0.077;;;;;;;;;;;;;;;;;;
2015-11-24T00:14:44.299Z;0;5.7330e+01;0;     0.090; 12447.904;  69124.945; 0;  67994.906;  69124.945;  74503.125;  62055.219;226;   3.560; 180.292;;; 266.617; 279.217;  11.694;   1.237;   0.624;   3.561;   3.555;   3.547;  -0.285;   0.077;;;;;;;;;;;;;;;;;;
2015-11-24T00:15:00.299Z;0;5.7210e+01;0;     0.085; 12547.136;  69070.781; 0;  67921.586;  69070.781;  74484.273;  61937.133;226;   3.557; 180.377;;; 266.701; 279.301;  11.698;   1.236;   0.623;   3.559;   3.553;   3.545;  -0.280;   0.077;;;;;;;;;;;;;;;;;;
2015-11-24T00:15:16.299Z;0;5.7280e+01;0;     0.091; 12547.136;  69115.078; 0;  67966.633;  69115.078;  74529.125;  61981.988;226;   3.555; 180.461;;; 266.785; 279.385;  11.703;   1.235;   0.622;   3.556;   3.550;   3.543;  -0.276;   0.077;;;;;;;;;;;;;;;;;;
2015-11-24T00:15:32.299Z;0;5.6920e+01;0;     0.082; 12547.136;  68903.031; 0;  67750.992;  68903.031;  74314.398;  61767.262;226;   3.552; 180.546;;; 266.869; 279.469;  11.707;   1.235;   0.621;   3.554;   3.548;   3.541;  -0.272;   0.077;;;;;;;;;;;;;;;;;;
2015-11-24T00:15:48.299Z;0;5.9270e+01;0;     0.101; 12547.136;  70261.695; 0;  69132.305;  70261.695;  75689.938;  63142.805;226;   3.550; 180.630;;; 266.953; 279.553;  11.711;   1.234;   0.620;   3.552;   3.546;   3.539;  -0.268;   0.076;;;;;;;;;;;;;;;;;;
2015-11-24T00:16:04.298Z;0;5.9470e+01;0;     0.093; 12646.788;  70394.102; 0;  69248.742;  70394.102;  75860.242;  63213.457;226;   3.547; 180.715;;; 267.036; 279.636;  11.716;   1.233;   0.619;   3.549;   3.543;   3.537;  -0.263;   0.076;;;;;;;;;;;;;;;;;;
2015-11-24T00:16:20.298Z;0;6.0410e+01;0;     0.093; 12646.788;  70931.086; 0;  69794.539;  70931.086;  76403.797;  63757.012;226;   3.545; 180.799;;; 267.120; 279.720;  11.720;   1.233;   0.618;   3.547;   3.541;   3.535;  -0.259;   0.076;;;;;;;;;;;;;;;;;;
2015-11-24T00:16:36.298Z;0;5.9380e+01;0;     0.091; 12646.788;  70346.180; 0;  69200.023;  70346.180;  75811.734;  63164.945;226;   3.543; 180.883;;; 267.203; 279.803;  11.725;   1.232;   0.617;   3.544;   3.538;   3.533;  -0.255;   0.076;;;;;;;;;;;;;;;;;;
2015-11-24T00:17:08.298Z;0;6.0340e+01;0;     0.086; 12747.868;  70910.648; 0;  69755.375;  70910.648;  76419.914;  63672.043;226;   3.538; 181.051;;; 267.370; 279.970;  11.733;   1.231;   0.615;   3.539;   3.534;   3.528;  -0.246;   0.076;;;;;;;;;;;;;;;;;;
2015-11-24T00:17:24.298Z;0;5.9210e+01;0;     0.087; 12747.868;  70267.750; 0;  69101.727;  70267.750;  75769.000;  63021.137;226;   3.535; 181.135;;; 267.453; 280.053;  11.738;   1.230;   0.614;   3.537;   3.531;   3.526;  -0.242;   0.076;;;;;;;;;;;;;;;;;;
2015-11-24T00:17:40.298Z;0;5.9960e+01;0;     0.094; 12747.868;  70696.070; 0;  69537.227;  70696.070;  76202.680;  63454.809;226;   3.533; 181.219;;; 267.537; 280.137;  11.742;   1.230;   0.613;   3.535;   3.529;   3.524;  -0.238;   0.076;;;;;;;;;;;;;;;;;;
2015-11-24T00:17:56.298Z;0;5.9940e+01;0;     0.096; 12747.868;  70682.102; 0;  69523.031;  70682.102;  76188.531;  63440.664;226;   3.530; 181.303;;; 267.620; 280.220;  11.747;   1.229;   0.612;   3.532;   3.526;   3.522;  -0.234;   0.076;;;;;;;;;;;;;;;;;;
2015-11-24T00:18:12.298Z;0;5.7100e+01;0;     0.085; 12850.349;  69065.203; 0;  67859.195;  69065.203;  74587.875;  61737.527;226;   3.528; 181.387;;; 267.703; 280.303;  11.751;   1.228;   0.611;   3.530;   3.524;   3.520;  -0.229;   0.076;;;;;;;;;;;;;;;;;;
2015-11-24T00:18:28.298Z;0;5.6450e+01;0;     0.091; 12850.349;  68682.266; 0;  67469.414;  68682.266;  74199.836;  61349.488;226;   3.526; 181.470;;; 267.785; 280.385;  11.756;   1.228;   0.610;   3.527;   3.521;   3.518;  -0.225;   0.076;;;;;;;;;;;;;;;;;;
2015-11-24T00:18:44.297Z;0;5.6630e+01;0;     0.085; 12850.349;  68787.688; 0;  67576.734;  68787.688;  74306.672;  61456.320;226;   3.523; 181.554;;; 267.868; 280.468;  11.760;   1.227;   0.608;   3.525;   3.519;   3.515;  -0.221;   0.075;;;;;;;;;;;;;;;;;;
2015-11-24T00:19:00.297Z;0;5.7010e+01;0;     0.097; 12953.248;  69027.211; 0;  67800.953;  69027.211;  74586.211;  61632.965;226;   3.521; 181.637;;; 267.951; 280.551;  11.764;   1.226;   0.607;   3.522;   3.517;   3.513;  -0.217;   0.075;;;;;;;;;;;;;;;;;;
2015-11-24T00:19:16.297Z;0;5.6290e+01;0;     0.093; 12953.248;  68609.727; 0;  67375.867;  68609.727;  74163.070;  61209.820;226;   3.518; 181.720;;; 268.034; 280.634;  11.769;   1.226;   0.606;   3.520;   3.514;   3.511;  -0.212;   0.075;;;;;;;;;;;;;;;;;;
2015-11-24T00:19:32.297Z;0;5.5770e+01;0;     0.079; 12953.248;  68302.305; 0;  67062.789;  68302.305;  73851.430;  60898.184;226;   3.516; 181.804;;; 268.116; 280.716;  11.773;   1.225;   0.605;   3.518;   3.512;   3.509;  -0.208;   0.075;;;;;;;;;;;;;;;;;;
2015-11-24T00:19:48.297Z;0;5.6160e+01;0;     0.090; 12953.248;  68529.875; 0;  67294.555;  68529.875;  74082.125;  61128.879;226;   3.514; 181.887;;; 268.199; 280.799;  11.778;   1.224;   0.604;   3.515;   3.509;   3.507;  -0.204;   0.075;;;;;;;;;;;;;;;;;;
2015-11-24T00:20:04.297Z;0;5.5860e+01;0;     0.081; 13057.128;  68371.836; 0;  67113.484;  68371.836;  73958.836;  60901.707;226;   3.511; 181.970;;; 268.281; 280.881;  11.782;   1.224;   0.603;   3.513;   3.507;   3.505;  -0.200;   0.075;;;;;;;;;;;;;;;;;;
2015-11-24T00:20:20.297Z;0;5.5860e+01;0;     0.091; 13057.128;  68376.320; 0;  67118.047;  68376.320;  73963.383;  60906.254;226;   3.509; 182.053;;; 268.363; 280.961;  11.787;   1.223;   0.602;   3.510;   3.505;   3.503;  -0.196;   0.075;;;;;;;;;;;;;;;;;;
2015-11-24T00:20:36.297Z;0;5.5780e+01;0;     0.093; 13057.128;  68325.898; 0;  67066.680;  68325.898;  73912.258;  60855.129;226;   3.506; 182.136;;; 268.445; 281.042;  11.791;   1.222;   0.601;   3.508;   3.502;   3.500;  -0.191;   0.075;;;;;;;;;;;;;;;;;;
2015-11-24T00:20:52.297Z;0;5.5820e+01;0;     0.090; 13057.128;  68352.547; 0;  67093.828;  68352.547;  73939.273;  60882.148;226;   3.504; 182.218;;; 268.527; 281.122;  11.796;   1.222;   0.600;   3.506;   3.500;   3.498;  -0.187;   0.075;;;;;;;;;;;;;;;;;;
2015-11-24T00:21:08.296Z;0;5.5570e+01;0;     0.083; 13161.736;  68225.562; 0;  66943.977;  68225.562;  73847.531;  60685.793;226;   3.502; 182.301;;; 268.609; 281.203;  11.800;   1.221;   0.599;   3.503;   3.497;   3.496;  -0.183;   0.075;;;;;;;;;;;;;;;;;;
2015-11-24T00:21:24.296Z;0;5.5580e+01;0;     0.087; 13161.736;  68229.930; 0;  66948.430;  68229.930;  73851.961;  60690.223;226;   3.499; 182.384;;; 268.691; 281.283;  11.805;   1.220;   0.598;   3.501;   3.495;   3.494;  -0.179;   0.075;;;;;;;;;;;;;;;;;;
2015-11-24T00:21:40.296Z;0;5.5940e+01;0;     0.091; 13161.736;  68439.203; 0;  67161.695;  68439.203;  74064.211;  60902.473;226;   3.497; 182.466;;; 268.773; 281.363;  11.809;   1.220;   0.596;   3.498;   3.493;   3.492;  -0.174;   0.074;;;;;;;;;;;;;;;;;;
2015-11-24T00:21:56.296Z;0;5.6070e+01;0;     0.096; 13161.736;  68520.719; 0;  67244.758;  68520.719;  74146.875;  60985.141;226;   3.494; 182.548;;; 268.854; 281.443;  11.814;   1.219;   0.595;   3.496;   3.490;   3.489;  -0.170;   0.074;;;;;;;;;;;;;;;;;;
2015-11-24T00:22:12.296Z;0;5.6020e+01;0;     0.088; 13266.988;  68506.516; 0;  67209.594;  68506.516;  74169.656;  60902.668;226;   3.492; 182.631;;; 268.936; 281.522;  11.818;   1.218;   0.594;   3.494;   3.488;   3.487;  -0.166;   0.074;;;;;;;;;;;;;;;;;;
2015-11-24T00:22:28.296Z;0;5.6300e+01;0;     0.092; 13266.988;  68675.680; 0;  67382.016;  68675.680;  74341.242;  61074.254;226;   3.490; 182.713;;; 269.017; 281.602;  11.823;   1.218;   0.593;   3.491;   3.485;   3.485;  -0.162;   0.074;;;;;;;;;;;;;;;;;;
2015-11-24T00:22:44.296Z;0;5.5940e+01;0;     0.084; 13266.988;  68461.625; 0;  67163.836;  68461.625;  74124.117;  60857.129;226;   3.487; 182.795;;; 269.098; 281.681;  11.827;   1.217;   0.592;   3.489;   3.483;   3.483;  -0.157;   0.074;;;;;;;;;;;;;;;;;;
2015-11-24T00:23:00.296Z;0;5.5980e+01;0;     0.089; 13373.500;  68509.062; 0;  67191.078;  68509.062;  74209.734;  60836.238;226;   3.485; 182.877;;; 269.180; 281.760;  11.832;   1.216;   0.591;   3.486;   3.481;   3.481;  -0.153;   0.074;;;;;;;;;;;;;;;;;;